Regional Weather Roundup
Issued by NWS

Home | Current Version | Previous Version | Graphics & Text | Print | Product List | Glossary On
Versions: 1 2 3 4 5 6 7 8 9 10 11 12 13 14 15 16 17 18 19 20 21 22 23 24 25 26 27 28 29 30 31 32 33 34 35 36 37 38 39 40 41 42 43 44 45 46 47 48 49 50
000
ASUS45 KCYS 091610
RWRWY

WYOMING REGIONAL WEATHER ROUNDUP
NATIONAL WEATHER SERVICE CHEYENNE WY
900 AM MST TUE FEB 09 2016

NOTE:  "FAIR" INDICATES FEW OR NO CLOUDS BELOW 12,000 FEET
WITH NO SIGNIFICANT WEATHER AND/OR OBSTRUCTIONS TO VISIBILITY.

WYZ001-091700-
YELLOWSTONE NATIONAL PARK

CITY           SKY/WX    TMP DP  RH WIND       PRES   REMARKS
LK YELLOWSTONE   N/A     14  13  95 CALM      30.56F
W YELLOWSTONE  NOT AVBL

$$
WYZ002>013-054>058-071-098>099-091700-
NORTHERN WYOMING

CITY           SKY/WX    TMP DP  RH WIND       PRES   REMARKS
JACKSON        SUNNY      7   7 100 CALM      30.60R
CODY           FAIR      34  25  69 NE5       30.34R WCI  30
GREYBULL       FAIR      21  18  88 CALM      30.39R
WORLAND        FAIR      24  21  88 CALM      30.38S
SHERIDAN       SUNNY     45  27  49 SW5       30.26F
BUFFALO        FAIR      45  27  49 CALM      30.29R
GILLETTE       PTSUNNY   42  30  62 W6        30.27S
HULETT         FAIR      36  28  75 SW8       30.26S WCI  29
NEWCASTLE      FAIR      37  28  70 NW16G23   30.24S WCI  28

$$
WYZ014>020-022>026-101>103-091700-
CENTRAL WYOMING

CITY           SKY/WX    TMP DP  RH WIND       PRES   REMARKS
BIG PINEY      FAIR      25  19  78 CALM      30.47S
PINEDALE       FAIR      32  23  69 NW13      30.45S WCI  22
DUBOIS         FAIR      43  10  26 W20G29    30.41S
LANDER         FAIR      24  12  60 CALM      30.40R
RIVERTON       FAIR      26  20  77 CALM      30.40S
CASPER         FAIR      32  20  61 SW18      30.35S WCI  20
DOUGLAS        FAIR      36  23  59 NW12        N/A  WCI  28

$$
WYZ021-027>030-104>119-091700-
SOUTHERN WYOMING

CITY           SKY/WX    TMP DP  RH WIND       PRES   REMARKS
EVANSTON       FAIR      25  18  74 SW12      30.54S WCI  14
FORT BRIDGER   SUNNY     34  25  69 W18       30.54S WCI  23
ROCK SPRINGS   FAIR      30  23  75 SW15      30.47S WCI  19
DIXON          FAIR      11   7  84 CALM      30.54S
RAWLINS        FAIR      29  19  66 W21       30.44S WCI  16
SARATOGA       FAIR      16  10  79 NE3       30.47R
LARAMIE        FAIR      26  18  71 E6        30.36S WCI  19
CHEYENNE       FAIR      40  20  44 NW12G24   30.31R WCI  33
TORRINGTON     FAIR      39  24  55 W13       30.27S WCI  31
PINE BLUFFS    FAIR      39  25  56 NW22G29   30.29S WCI  29

$$




USA.gov is the U.S. government's official web portal to all federal, state and local government web resources and services.